"Time","Temp","Dewpoint","Humidity","Pressure","Direction","Speed","Gust","Precip","PrecipRate"
"00:04:57","60.6","58.3","92","29.70","88","1.6","4","0.01","0.11"
"00:09:59","60.4","58.2","92.3","29.70","94","2","3.5","0.01","0.10"
"00:14:58","60.3","58.3","93","29.70","101","2.4","4","0.04","0.10"
"00:19:58","60.2","58.2","93","29.69","115","1.7","5","0.05","0.03"
"00:24:57","60.1","58.4","93.8","29.69","113","1.5","4","0.05","0.03"
"00:29:56","60","58.3","94","29.69","92","1.7","3.5","0.05","0.03"
"00:34:59","60","58.3","94","29.69","92","1.7","3.5","0.05","0.03"
"00:39:56","60","58.3","94","29.69","92","2.1","4","0.05","0.11"
"00:44:59","60","58.3","94","29.69","94","1.7","3.5","0.05","0.08"
"00:49:59","60","58.3","94","29.68","95","1.3","3.5","0.05","0.06"
"00:54:58","59.9","58.2","94","29.68","95","1","2.3","0.05","0.05"
"00:59:58","59.9","58.4","94.7","29.68","94","1.3","3.5","0.05","0.05"
"01:04:56","59.8","58.4","95","29.67","94","1.2","2.3","0.05","0.05"
"01:09:58","59.8","58.4","95","29.67","95","1.4","3.5","0.05","0.04"
"01:14:59","59.8","58.4","95","29.67","93","1.5","4","0.06","0.04"
"01:19:58","59.8","58.4","95","29.66","93","1.8","3.5","0.06","0.02"
"01:24:57","59.8","58.4","95","29.66","109","2","5","0.06","0.01"
"01:29:56","59.9","58.5","95","29.66","108","1.5","3.5","0.06","0.01"
"01:39:57","59.9","58.5","95.2","29.64","110","1.1","3.5","0.06","0.01"
"01:44:56","59.9","58.6","95.4","29.64","110","0.9","3.5","0.07","0.02"
"01:49:56","59.9","58.8","96","29.64","106","1.7","5","0.07","0.02"
"01:54:59","60","58.8","95.7","29.64","109","2","5","0.07","0.02"
"01:59:58","60.1","58.8","95.3","29.64","113","1.2","4.6","0.07","0.02"
"02:04:58","60.1","58.7","95","29.62","110","1.7","5","0.07","0.02"
"02:09:59","60.2","58.8","95","29.62","101","0.7","2.3","0.07","0.02"
"02:14:57","60.2","58.8","95","29.62","122","1.8","5","0.07","0.02"
"02:19:56","60.3","58.9","95.2","29.61","130","2.2","4","0.07","0.01"
"02:24:56","60.3","58.9","95","29.61","66","1.2","3.5","0.07","0.01"
"02:29:56","60.3","59","95.2","29.61","65","0.5","3.5","0.08","0.02"
"02:34:59","60.3","59.1","95.6","29.60","98","2","5","0.08","0.02"
"02:39:56","60.3","59.1","95.7","29.60","95","1.8","4.6","0.09","0.03"
"02:44:59","60.3","58.9","95","29.60","94","1.6","3.5","0.09","0.03"
"02:49:58","60.2","58.8","95","29.59","94","1.3","3.5","0.09","0.02"
"02:54:58","60.2","58.9","95.5","29.59","94","1.5","3.5","0.09","0.02"
"02:59:58","60.2","59.1","96","29.59","94","0.6","2.3","0.09","0.02"
"03:04:57","60.1","59","96","29.58","94","0.4","2.3","0.09","0.02"
"03:09:58","60.1","59","96","29.58","94","0.4","1.2","0.09","0.02"
"03:14:56","60.1","59","96","29.58","94","0.7","2.3","0.09","0.02"
"03:19:59","60.1","59","96","29.57","94","0","1.2","0.09","0.02"
"03:24:59","60","58.9","96","29.57","94","0","0","0.09","0.02"
"03:29:59","60","58.9","96","29.57","94","0.8","2.3","0.09","0.02"
"03:34:58","60","58.9","96","29.56","93","0.8","2.3","0.09","0.01"
"03:39:55","60","58.9","96","29.56","93","1.1","3","0.09","0.01"
"03:44:57","60","58.9","96","29.56","93","1.1","3.5","0.10","0.01"
"03:49:57","60.1","59","96","29.56","93","1.3","3.5","0.10","0.01"
"03:54:56","60.1","59.2","96.8","29.56","92","1.3","5","0.10","0.01"
"03:59:59","60.2","59.3","97","29.56","109","3.3","7","0.10","0.01"
"04:04:59","60.5","59.6","97","29.55","128","2.5","6","0.10","0.01"
"04:09:56","60.7","59.8","97","29.55","125","1.7","6","0.11","0.02"
"04:14:56","60.8","59.9","97","29.55","108","2.8","5.8","0.11","0.02"
"04:19:55","60.9","59.9","96.2","29.53","109","2","5","0.11","0.02"
"04:24:59","61","59.9","96","29.53","110","3.1","8","0.11","0.02"
"04:29:58","61.1","60","96","29.53","119","3.3","7","0.12","0.03"
"04:34:58","61.2","60.1","96","29.52","121","2.6","5","0.12","0.03"
"04:39:59","61.2","60.1","96","29.52","103","2.2","6","0.12","0.03"
"04:44:59","61.2","60.1","96","29.52","124","5.2","12","0.13","0.04"
"04:49:58","61.3","60.2","96","29.51","131","3.2","10.4","0.13","0.03"
"04:54:57","61.3","60.2","96","29.51","102","3.3","7","0.13","0.03"
"04:59:57","61.4","60.2","96","29.51","113","3","5.8","0.13","0.03"
"05:04:56","61.3","60.2","96","29.50","104","4.1","7","0.13","0.03"
"05:09:56","61.3","60.2","96","29.50","113","3.9","8.1","0.13","0.03"
"05:14:57","61.3","60.2","96","29.50","112","3.7","10","0.13","0.02"
"05:19:56","61.5","60.2","95.8","29.50","118","3.5","9","0.13","0.02"
"05:24:56","61.7","60.3","95","29.50","120","4.9","10.4","0.13","0.02"
"05:29:59","61.8","60.4","95","29.50","111","4.1","9.2","0.13","0.02"
"05:34:59","61.9","60.5","95","29.49","109","3.3","9.2","0.13","0.01"
"05:39:56","61.9","60.5","95","29.49","123","2.4","5","0.13","0.01"
"05:44:56","61.9","60.5","95","29.49","110","2.9","6","0.13","0.01"
"05:49:59","61.8","60.4","95","29.48","110","3.4","6","0.13","0.00"
"05:54:59","61.8","60.4","95","29.48","107","3.2","6","0.13","0.00"
"05:59:58","61.7","60.3","95","29.48","111","2.7","5","0.13","0.00"
"06:04:58","61.7","60.4","95.7","29.48","102","3.1","5","0.13","0.00"
"06:09:56","61.7","60.5","96","29.48","108","2.4","5","0.13","0.00"
"06:14:58","61.6","60.4","96","29.48","105","2.2","5","0.13","0.00"
"06:19:59","61.6","60.4","96","29.48","133","2.5","5","0.13","0.00"
"06:24:56","61.6","60.4","96","29.48","129","2.5","7","0.13","0.00"
"06:29:57","61.6","60.4","96","29.48","142","1.9","4","0.13","0.00"
"06:34:57","61.5","60.3","96","29.48","125","2.6","4","0.13","0.00"
"06:39:59","61.5","60.3","96","29.48","117","2.3","5","0.13","0.00"
"06:44:57","61.5","60.3","96","29.48","121","1.4","4","0.14","0.01"
"06:49:58","61.5","60.3","96","29.48","125","0.7","4","0.14","0.01"
"06:54:59","61.5","60.3","96","29.48","156","1.8","4","0.14","0.01"
"06:59:57","61.4","60.2","96","29.49","192","2.9","5","0.14","0.01"
"07:04:58","61.4","60.2","96","29.49","229","4.3","7","0.14","0.01"
"07:09:58","61.4","60.2","96","29.49","236","4.4","8","0.14","0.01"
"07:14:59","61.4","60.2","95.8","29.50","229","5","10.4","0.14","0.01"
"07:19:57","61.1","59.6","94.5","29.50","244","5.2","12","0.14","0.01"
"07:24:59","60.9","59.2","94","29.50","253","4.3","11.5","0.14","0.01"
"07:29:55","60.7","59","94","29.50","231","3.3","9.2","0.14","0.01"
"07:34:56","60.6","58.9","94","29.50","248","3.8","10","0.14","0.01"
"07:39:58","60.5","58.8","94","29.50","236","4","10.4","0.14","0.01"
"07:44:59","60.4","58.9","94.9","29.52","238","3.9","7","0.14","0.01"
"07:49:56","60.4","59","95","29.52","239","5.1","11.5","0.14","0.00"
"07:54:57","60.5","59.1","94.9","29.52","235","5.1","10","0.14","0.00"
"07:59:59","60.7","59","94","29.53","236","6.5","11.5","0.14","0.00"
"08:04:59","61","59.3","94","29.53","237","5.4","11.5","0.14","0.00"
"08:09:59","61.1","59.3","93.7","29.53","241","5","10","0.14","0.00"
"08:14:57","61.3","59.5","93.7","29.53","240","4.6","12","0.14","0.00"
"08:19:58","61.5","59.6","93.5","29.53","236","4.4","10.4","0.14","0.00"
"08:24:59","61.7","59.7","93","29.53","239","4.7","10.4","0.14","0.00"
"08:29:57","61.9","59.9","93","29.53","235","3.9","6","0.14","0.00"
"08:34:59","62","60","93","29.53","232","2.9","5.8","0.14","0.00"
"08:39:57","62.1","59.9","92.4","29.53","232","3.7","7","0.14","0.00"
"08:44:59","62.1","59.7","92","29.54","227","3.1","5.8","0.14","0.00"
"08:49:56","62.1","59.8","92.1","29.54","228","2.4","5","0.14","0.00"
"08:54:58","62.6","60.2","92","29.54","329","1.7","4","0.14","0.00"
"08:59:59","63.2","60.6","91.3","29.54","297","1.8","5","0.14","0.00"
"09:04:59","63.9","61.1","90.7","29.53","231","2.4","6","0.14","0.00"
"09:09:59","64.4","61.1","89.1","29.53","222","4.2","9.2","0.14","0.00"
"09:14:56","64.8","61.9","90.1","29.53","227","3.2","5","0.14","0.00"
"09:19:57","65.3","62","89","29.53","229","3.6","6","0.14","0.00"
"09:24:56","65.9","62.1","87.7","29.53","230","3.6","7","0.14","0.00"
"09:29:57","66.5","62.1","85.7","29.53","236","5.2","11","0.14","0.00"
"09:34:59","67","62.4","85.2","29.53","241","4.6","8","0.14","0.00"
"09:39:58","67.5","62.5","84","29.53","246","4.3","7","0.14","0.00"
"09:44:56","67.8","62.1","82","29.53","229","2.9","6","0.14","0.00"
"09:49:58","68.2","62.4","81.7","29.53","252","3.1","5","0.14","0.00"
"09:54:59","68.8","62.6","80.4","29.53","236","4.8","10.4","0.14","0.00"
"09:59:56","69.2","62.6","79.5","29.53","220","4.4","8","0.14","0.00"
"10:04:56","69.3","62","77.7","29.53","238","4.6","9","0.14","0.00"
"10:09:56","69.5","62","77.2","29.53","233","5.3","11","0.14","0.00"
"10:14:59","69.7","62.2","77.1","29.53","232","5.2","11.5","0.14","0.00"
"10:19:59","70.1","62.7","77.4","29.53","244","3.8","10.4","0.14","0.00"
"10:24:57","70.3","62.4","76.3","29.53","239","3.9","10.4","0.14","0.00"
"10:29:59","70.5","62.2","75.2","29.53","247","3.3","7","0.14","0.00"
"10:34:57","70.5","61.4","72.9","29.53","259","3.1","10","0.14","0.00"
"10:39:56","70.7","61.7","73.2","29.53","239","3.4","7","0.14","0.00"
"10:44:59","71","61.4","71.7","29.53","223","1.8","11","0.14","0.00"
"10:49:56","71.4","61.3","70.3","29.53","320","3.4","11.5","0.14","0.00"
"10:54:57","71.6","59.7","66.1","29.53","309","3.6","9","0.14","0.00"
"10:59:58","71.6","59.1","64.7","29.53","326","3.2","9","0.14","0.00"
"11:04:59","71.5","59.5","65.9","29.53","287","3.6","9.2","0.14","0.00"
"11:09:59","71.7","59.4","65.2","29.53","273","2.9","7","0.14","0.00"
"11:14:59","72.1","59.5","64.7","29.53","295","3.5","9.2","0.14","0.00"
"11:19:57","72.3","60.1","65.5","29.53","229","5.8","12","0.14","0.00"
"11:24:56","72.5","60.5","66","29.53","242","3.3","10.4","0.14","0.00"
"11:29:57","73","59.3","62.4","29.53","268","3.5","7","0.14","0.00"
"11:34:59","72.8","59.8","63.8","29.53","219","4.4","9.2","0.14","0.00"
"11:39:59","73","60.1","64","29.53","216","3.5","5","0.14","0.00"
"11:44:57","73.5","60.7","64.2","29.53","223","3.1","5","0.14","0.00"
"11:49:56","73.9","59.1","59.9","29.52","326","3.5","8.1","0.14","0.00"
"11:54:59","73.9","58.7","59.1","29.52","313","2.5","4.6","0.14","0.00"
"11:59:57","74","58.1","57.6","29.52","324","2.7","6","0.14","0.00"
"12:04:57","73.5","58.6","59.8","29.52","240","3.4","7","0.14","0.00"
"12:09:57","72.9","59.8","63.6","29.52","238","2.6","6.9","0.14","0.00"
"12:14:57","72.8","59.2","62.3","29.52","229","2.3","5","0.14","0.00"
"12:19:59","72.5","58.6","61.6","29.52","220","2.2","4","0.14","0.00"
"12:24:58","72.4","59.4","63.6","29.52","222","2.3","5","0.14","0.00"
"12:29:56","72.2","58.7","62.5","29.52","234","2.5","5","0.14","0.00"
"12:34:59","72.2","59","63.4","29.52","219","2.4","5","0.14","0.00"
"12:39:58","72.3","58.1","60.9","29.52","296","2.1","5","0.14","0.00"
"12:44:56","72.3","58.5","62","29.52","251","1.8","3.5","0.14","0.00"
"12:49:58","72.6","58.5","61.4","29.52","306","2.7","7","0.14","0.00"
"12:54:56","72.6","58.5","61.4","29.52","300","1.5","4.6","0.14","0.00"
"12:59:58","73.1","60.4","64.5","29.52","271","1.4","4","0.14","0.00"
"13:04:59","74.1","60.3","62.1","29.50","276","2","5","0.14","0.00"
"13:09:59","74.4","58.9","58.5","29.50","337","1.5","5","0.14","0.00"
"13:14:56","74.2","59.1","59.3","29.50","333","1.5","4","0.14","0.00"
"13:19:58","74.8","60.3","60.7","29.50","222","2.1","5","0.14","0.00"
"13:24:57","75.2","58.7","56.6","29.50","12","2.1","6","0.14","0.00"
"13:29:56","75.1","58.1","55.5","29.50","320","2","5","0.14","0.00"
"13:34:58","74.7","57.8","55.7","29.49","331","1.2","3.5","0.14","0.00"
"13:39:59","74.7","58.1","56.4","29.49","210","1.2","3.5","0.14","0.00"
"13:44:58","74.8","58.8","57.5","29.49","88","1.9","4","0.14","0.00"
"13:49:56","74.6","58.9","58.1","29.48","97","0.9","3.5","0.14","0.00"
"13:54:56","74.6","58.8","57.8","29.48","74","0.9","3.5","0.14","0.00"
"13:59:59","74.8","58.3","56.7","29.48","74","1","4","0.14","0.00"
"14:04:56","75","58.4","56.5","29.48","92","1.5","3.5","0.14","0.00"
"14:09:56","75.1","57.7","54.7","29.48","124","1","3.5","0.14","0.00"
"14:14:57","75.1","57.4","54.3","29.48","167","1.4","4","0.14","0.00"
"14:19:59","75","58.3","56.2","29.48","165","1","3","0.14","0.00"
"14:24:57","75.3","59.2","57.4","29.48","309","2.4","4","0.14","0.00"
"14:29:59","75.4","58.1","55","29.48","346","3.7","10","0.14","0.00"
"14:34:58","75.6","59.8","58","29.47","73","2.4","8.1","0.14","0.00"
"14:39:58","76.1","58.7","54.9","29.47","63","2.2","5","0.14","0.00"
"14:44:57","76.5","58.7","54.2","29.47","335","4.9","11","0.14","0.00"
"14:49:56","76.4","58","53","29.47","325","4.3","11.5","0.14","0.00"
"14:54:59","76.3","57.7","52.6","29.47","317","3.3","8.1","0.14","0.00"
"14:59:59","76.6","55.7","48.4","29.47","318","2.1","6","0.14","0.00"
"15:04:57","77","55.5","47.5","29.45","319","1.7","6","0.14","0.00"
"15:09:58","77.5","55.8","47.2","29.45","351","2","4.6","0.14","0.00"
"15:14:57","78.1","56","46.8","29.45","24","1.9","4","0.14","0.00"
"15:19:59","78.2","55.1","45","29.44","67","2.3","11","0.14","0.00"
"15:24:59","77.4","54.7","45.5","29.44","92","3.4","11.5","0.14","0.00"
"15:29:58","77.2","54.8","46","29.44","89","1.6","4.6","0.14","0.00"
"15:34:57","77.3","54.7","45.6","29.44","50","1.5","5","0.14","0.00"
"15:39:57","77.3","53.1","43.1","29.44","336","1.5","4.6","0.14","0.00"
"15:44:56","77.4","54","44.4","29.44","36","1","3.5","0.14","0.00"
"15:49:59","77.4","54.4","45.1","29.44","65","1.5","4","0.14","0.00"
"15:54:58","77.3","54.7","45.7","29.44","47","1.6","3.5","0.14","0.00"
"15:59:56","77.1","55.2","46.8","29.44","69","1.5","4","0.14","0.00"
"16:04:58","76.9","53.5","44.4","29.44","145","1.3","4","0.14","0.00"
"16:09:58","76.5","54.1","45.9","29.44","214","2.8","5","0.14","0.00"
"16:14:58","76.2","54.3","46.6","29.45","218","4.7","12","0.14","0.00"
"16:19:56","77","54.9","46.5","29.45","190","4.3","12","0.14","0.00"
"16:24:57","78.1","54.9","44.8","29.45","182","4.2","10","0.14","0.00"
"16:29:57","78.8","54.7","43.4","29.45","184","5.1","12","0.14","0.00"
"16:34:57","79.1","55.5","44.3","29.44","180","5.3","11","0.14","0.00"
"16:39:57","79","56.3","45.8","29.44","177","3.8","7","0.14","0.00"
"16:44:57","79.2","55.7","44.5","29.44","188","4.8","8","0.14","0.00"
"16:49:56","78.5","55.8","45.7","29.44","196","3.1","8.1","0.14","0.00"
"16:54:56","78","55.6","46.1","29.44","196","3.1","6.9","0.14","0.00"
"16:59:58","78.1","55.3","45.4","29.44","202","2.7","5","0.14","0.00"
"17:04:59","78.4","56.3","46.6","29.43","200","2.8","7","0.14","0.00"
"17:09:59","78.6","55.4","44.9","29.43","181","4.9","10.4","0.14","0.00"
"17:14:59","77.9","53.3","42.6","29.43","200","4.9","10.4","0.14","0.00"
"17:19:58","76.7","53.3","44.2","29.43","185","3.2","10.4","0.14","0.00"
"17:24:57","76.2","54.1","46.4","29.43","183","3.4","9","0.14","0.00"
"17:29:55","75.9","53.4","45.7","29.43","159","3.2","9.2","0.14","0.00"
"17:34:58","76.1","55.1","48.1","29.43","183","3.2","6","0.14","0.00"
"17:39:59","76.6","55.9","48.7","29.43","163","2.7","6","0.14","0.00"
"17:44:57","76.5","54.8","47.1","29.44","183","4.1","10.4","0.14","0.00"
"17:49:59","75.8","55","48.4","29.44","199","4.6","9.2","0.14","0.00"
"17:54:56","75.3","54.9","49.2","29.44","211","5.4","13","0.14","0.00"
"17:59:58","75","55.4","50.6","29.44","193","3.5","6","0.14","0.00"
"18:04:59","74.7","55.2","50.6","29.44","199","3.7","9","0.14","0.00"
"18:09:59","74.5","54.9","50.3","29.44","204","5.4","11.5","0.14","0.00"
"18:14:57","74.5","55.3","51.3","29.44","230","5","7","0.14","0.00"
"18:19:56","74","55.6","52.7","29.44","260","5.8","13","0.14","0.00"
"18:24:57","72.4","55.1","54.6","29.44","250","5.9","12.7","0.14","0.00"
"18:29:57","71.3","54.8","56.1","29.45","237","5","13","0.14","0.00"
"18:34:58","70.5","55","58","29.45","230","4.6","9.2","0.14","0.00"
"18:39:58","70.1","55.1","59","29.45","150","2.5","6.9","0.14","0.00"
"18:44:56","70.1","55.4","59.8","29.45","132","0.8","3","0.14","0.00"
"18:49:59","70","56.1","61.3","29.45","153","1.8","5","0.14","0.00"
"18:54:56","69.7","57.2","64.4","29.45","145","2.3","4","0.14","0.00"
"18:59:57","69.4","56.8","64.3","29.45","127","2.7","5","0.14","0.00"
"19:04:57","69.1","56.8","65","29.45","119","2.9","6","0.14","0.00"
"19:09:58","69","55.9","63","29.45","130","2.4","5","0.14","0.00"
"19:14:58","68.9","55.7","62.8","29.45","141","1.4","3.5","0.14","0.00"
"19:19:57","68.9","55.3","62","29.45","123","1.7","4","0.14","0.00"
"19:24:59","68.7","54.9","61.5","29.45","121","0.5","3.5","0.14","0.00"
"19:29:57","68.6","55.7","63.6","29.45","121","0","1","0.14","0.00"
"19:34:56","68.1","56.3","65.8","29.45","121","0","0","0.14","0.00"
"19:39:57","67.7","55.3","64.5","29.45","121","0","0","0.14","0.00"
"19:44:56","67.2","56.1","67.3","29.45","121","0","0","0.14","0.00"
"19:49:59","66.7","56","68.7","29.45","121","0","0","0.14","0.00"
"19:54:58","66.2","55.8","69.3","29.45","121","0","0","0.14","0.00"
"19:59:59","65.6","56.1","71.5","29.45","121","0","0","0.14","0.00"
"20:04:57","65.2","56.3","72.9","29.45","121","0","0","0.14","0.00"
"20:09:58","64.9","56.5","74.2","29.45","121","0","0","0.14","0.00"
"20:14:56","64.5","56.1","74.3","29.46","121","0.6","2.3","0.14","0.00"
"20:19:59","64.2","56.1","75.1","29.46","97","1.5","2.3","0.14","0.00"
"20:24:58","64","56","75.3","29.46","86","0.1","2.3","0.14","0.00"
"20:29:57","63.8","55.6","74.6","29.47","86","0.4","2.3","0.14","0.00"
"20:34:56","63.7","56.4","77.2","29.47","86","1.5","2.3","0.14","0.00"
"20:39:58","63.5","56.6","78.4","29.47","329","3","9.2","0.14","0.00"
"20:44:58","63.4","56","77","29.50","323","4.2","10.4","0.14","0.00"
"20:49:56","64.3","55.2","72.1","29.50","314","4.9","10.4","0.14","0.00"
"20:54:59","65.4","55.4","70.2","29.50","316","4.1","7","0.14","0.00"
"20:59:59","65.8","55.2","68.8","29.51","305","3.8","7","0.14","0.00"
"21:04:57","66","54.9","67.4","29.51","314","4.2","9.2","0.14","0.00"
"21:09:56","66.2","54.8","66.9","29.51","324","3.4","9.2","0.14","0.00"
"21:14:58","66.1","54.5","66.2","29.51","313","3.6","10.4","0.14","0.00"
"21:19:58","66.2","54.3","65.5","29.51","312","3","9.2","0.14","0.00"
"21:24:59","66.2","54.5","65.8","29.51","326","3.9","9","0.14","0.00"
"21:29:58","66.2","54.5","66","29.52","308","3.5","7","0.14","0.00"
"21:34:57","66.2","54.7","66.6","29.52","280","2.5","5","0.14","0.00"
"21:39:57","66.1","54.8","66.9","29.52","307","2.6","9","0.14","0.00"
"21:44:56","65.9","54.8","67.3","29.53","341","2.5","5","0.14","0.00"
"21:49:58","65.8","54.5","67","29.53","322","2.3","4","0.14","0.00"
"21:54:58","65.7","54.6","67.3","29.53","323","2","4","0.14","0.00"
"21:59:56","65.6","54.4","67.1","29.53","8","1.7","6","0.14","0.00"
"22:04:57","65.5","53.8","66.1","29.53","333","3.4","10.4","0.14","0.00"
"22:09:58","65.4","53.8","66.3","29.53","338","2","5.8","0.14","0.00"
"22:14:59","65.2","53.6","66.1","29.53","337","2.3","5","0.14","0.00"
"22:19:57","65","53.5","66.4","29.53","344","1.9","5","0.14","0.00"
"22:24:58","64.7","53.5","67.1","29.53","343","1","3.5","0.14","0.00"
"22:29:57","64.3","53.4","67.9","29.54","339","0.8","5","0.14","0.00"
"22:34:58","63.8","53","67.8","29.54","335","2.1","5","0.14","0.00"
"22:39:58","63.6","52.5","67.4","29.54","332","2.5","5","0.14","0.00"
"22:44:58","63.4","52.6","67.7","29.54","338","1.2","4","0.14","0.00"
"22:49:57","63.2","52.5","68","29.54","316","2.2","6","0.14","0.00"
"22:54:56","63.1","52.4","68","29.54","328","1.9","4","0.14","0.00"
"22:59:59","62.9","52.2","68","29.55","341","2","7","0.14","0.00"
"23:04:56","62.8","52.2","68.2","29.55","352","1.3","3.5","0.14","0.00"
"23:09:56","62.6","52.2","68.8","29.55","353","1","5","0.14","0.00"
"23:14:57","62.4","52.1","69","29.56","328","1.2","4","0.14","0.00"
"23:19:55","62.2","51.9","69","29.56","331","1.2","3.5","0.14","0.00"
"23:24:59","62","51.7","69.1","29.56","340","1.2","3.5","0.14","0.00"
"23:29:58","61.8","51.8","69.8","29.56","330","1.5","3.5","0.14","0.00"
"23:34:58","61.8","51.9","70","29.56","322","1.2","3.5","0.14","0.00"
"23:39:58","61.7","51.8","70","29.56","323","0.5","2.3","0.14","0.00"
"23:44:58","61.7","51.8","70","29.57","323","0.5","2.3","0.14","0.00"
"23:49:57","61.7","51.8","70","29.57","323","0.7","2.3","0.14","0.00"
"23:54:57","61.7","51.8","70","29.57","323","1","2.3","0.14","0.00"
"23:59:56","61.7","51.9","70.3","29.58","323","0.4","3.5","0.14","0.00"
